When you browse on this site, cookies collect data to enhance your experience and personalize the content and advertising you see.
Visit our Privacy Policy to learn more. By continuing to use the site, you agree to this use of cookies and data.
  • In Sweden
  • List of Countries
  • For 7 days
  • Water Temperature
  • Satellite Maps
  • Weather Map
  • Weather Widgets
  • user-avatar
    Login

    Hourly Weather Ballarat

    Today, 21 May, Tuesday

    Time Temperature Precipitation Wind Pressure Humidity
    00:00 +10°C° 0 mm 2 mps 724 mmHg 88%
    01:00 +10°C° 0 mm 2 mps 724 mmHg 88%
    02:00 +9°C° 0 mm 2 mps 724 mmHg 88%
    03:00 +9°C° 0 mm 2 mps 724 mmHg 89%
    04:00 +10°C° 0 mm 1 mps 724 mmHg 89%
    05:00 +10°C° 0 mm 1 mps 725 mmHg 90%
    06:00 +9°C° 0 mm 2 mps 725 mmHg 91%
    07:00 +9°C° 0 mm 2 mps 725 mmHg 92%
    08:00 +10°C° 0 mm 2 mps 726 mmHg 88%
    09:00 +12°C° 0 mm 2 mps 726 mmHg 83%
    10:00 +13°C° 0 mm 3 mps 726 mmHg 78%
    11:00 +13°C° 0 mm 3 mps 726 mmHg 75%
    12:00 +14°C° 0 mm 3 mps 726 mmHg 73%
    13:00 +16°C° 0 mm 3 mps 726 mmHg 70%
    14:00 +16°C° 0 mm 3 mps 726 mmHg 70%
    15:00 +16°C° 0 mm 2 mps 726 mmHg 69%
    16:00 +16°C° 0 mm 2 mps 726 mmHg 69%
    17:00 +14°C° 0 mm 2 mps 726 mmHg 75%
    18:00 +13°C° 0 mm 2 mps 726 mmHg 82%
    19:00 +12°C° 0 mm 1 mps 727 mmHg 88%
    20:00 +11°C° 0 mm 1 mps 727 mmHg 89%
    21:00 +11°C° 0 mm 1 mps 727 mmHg 90%
    22:00 +11°C° 0 mm 1 mps 727 mmHg 91%
    23:00 +10°C° 0 mm 1 mps 727 mmHg 91%

    Tomorrow, 22 May, Wednesday

    Time Temperature Precipitation Wind Pressure Humidity
    00:00 +10°C° 0 mm 1 mps 727 mmHg 91%
    01:00 +10°C° 0 mm 1 mps 727 mmHg 91%
    02:00 +10°C° 0 mm 1 mps 728 mmHg 91%
    03:00 +9°C° 0 mm 1 mps 728 mmHg 91%
    04:00 +9°C° 0 mm 1 mps 728 mmHg 92%
    05:00 +9°C° 0 mm 1 mps 728 mmHg 91%
    06:00 +9°C° 0 mm 1 mps 728 mmHg 91%
    07:00 +8°C° 0 mm 1 mps 729 mmHg 91%
    08:00 +10°C° 0 mm 1 mps 729 mmHg 83%
    09:00 +12°C° 0 mm 1 mps 730 mmHg 75%
    10:00 +14°C° 0 mm 1 mps 730 mmHg 66%
    11:00 +15°C° 0 mm 2 mps 730 mmHg 60%
    12:00 +17°C° 0 mm 2 mps 730 mmHg 53%
    13:00 +18°C° 0 mm 2 mps 730 mmHg 47%
    14:00 +18°C° 0 mm 2 mps 730 mmHg 48%
    15:00 +19°C° 0 mm 1 mps 729 mmHg 50%
    16:00 +18°C° 0 mm 1 mps 729 mmHg 52%
    17:00 +15°C° 0 mm 1 mps 729 mmHg 59%
    18:00 +13°C° 0 mm 1 mps 729 mmHg 66%
    19:00 +11°C° 0 mm 1 mps 729 mmHg 73%
    20:00 +10°C° 0 mm 1 mps 729 mmHg 74%
    21:00 +10°C° 0 mm 1 mps 729 mmHg 74%
    22:00 +9°C° 0 mm 1 mps 729 mmHg 75%
    23:00 +9°C° 0 mm 1 mps 729 mmHg 75%

    Day after tomorrow, 23 May, Thursday

    Time Temperature Precipitation Wind Pressure Humidity
    00:00 +9°C° 0 mm 1 mps 729 mmHg 75%
    01:00 +9°C° 0 mm 1 mps 729 mmHg 75%
    02:00 +9°C° 0 mm 1 mps 729 mmHg 76%
    03:00 +8°C° 0 mm 2 mps 729 mmHg 77%
    04:00 +8°C° 0 mm 2 mps 728 mmHg 79%
    05:00 +8°C° 0 mm 2 mps 728 mmHg 79%
    06:00 +8°C° 0 mm 2 mps 728 mmHg 79%
    07:00 +8°C° 0 mm 2 mps 728 mmHg 79%
    08:00 +10°C° 0 mm 3 mps 729 mmHg 73%
    09:00 +12°C° 0 mm 3 mps 729 mmHg 68%
    10:00 +13°C° 0 mm 4 mps 729 mmHg 62%
    11:00 +14°C° 0 mm 4 mps 728 mmHg 60%
    12:00 +17°C° 0 mm 4 mps 728 mmHg 57%
    13:00 +18°C° 0 mm 4 mps 727 mmHg 55%
    14:00 +18°C° 0 mm 4 mps 727 mmHg 57%
    15:00 +18°C° 0 mm 4 mps 727 mmHg 58%
    16:00 +17°C° 0 mm 3 mps 726 mmHg 59%
    17:00 +16°C° 0 mm 3 mps 726 mmHg 64%
    18:00 +14°C° 0 mm 3 mps 726 mmHg 68%
    19:00 +13°C° 0 mm 2 mps 726 mmHg 72%
    20:00 +13°C° 0 mm 2 mps 726 mmHg 74%
    21:00 +13°C° 0 mm 2 mps 726 mmHg 76%
    22:00 +12°C° 0 mm 2 mps 726 mmHg 78%
    23:00 +12°C° 0 mm 2 mps 726 mmHg 80%

    24 May, Friday

    Time Temperature Precipitation Wind Pressure Humidity
    00:00 +10°C° 0 mm 2 mps 725 mmHg 81%
    01:00 +10°C° 0 mm 2 mps 725 mmHg 83%
    02:00 +10°C° 0 mm 2 mps 724 mmHg 83%
    03:00 +10°C° 0 mm 2 mps 724 mmHg 82%
    04:00 +9°C° 0 mm 2 mps 724 mmHg 81%
    05:00 +10°C° 0 mm 2 mps 724 mmHg 79%
    06:00 +10°C° 0 mm 2 mps 723 mmHg 77%
    07:00 +10°C° 0 mm 3 mps 723 mmHg 75%
    08:00 +11°C° 0.1 mm 3 mps 723 mmHg 72%
    09:00 +12°C° 0.1 mm 4 mps 723 mmHg 69%
    10:00 +13°C° 0.1 mm 4 mps 723 mmHg 65%
    11:00 +13°C° 0.4 mm 4 mps 723 mmHg 69%
    12:00 +13°C° 0.4 mm 4 mps 722 mmHg 73%
    13:00 +13°C° 0.4 mm 4 mps 721 mmHg 77%
    14:00 +14°C° 0.2 mm 4 mps 721 mmHg 75%
    15:00 +14°C° 0.2 mm 4 mps 721 mmHg 74%
    16:00 +14°C° 0.2 mm 4 mps 720 mmHg 73%
    17:00 +14°C° 0 mm 4 mps 721 mmHg 72%
    18:00 +14°C° 0 mm 4 mps 721 mmHg 71%
    19:00 +13°C° 0 mm 5 mps 721 mmHg 70%
    20:00 +13°C° 0 mm 4 mps 721 mmHg 75%
    21:00 +12°C° 0 mm 4 mps 722 mmHg 81%
    22:00 +12°C° 0 mm 3 mps 722 mmHg 86%
    23:00 +11°C° 0.1 mm 3 mps 722 mmHg 88%

    25 May, Saturday

    Time Temperature Precipitation Wind Pressure Humidity
    00:00 +11°C° 0.1 mm 3 mps 721 mmHg 91%
    01:00 +12°C° 0.1 mm 2 mps 721 mmHg 94%
    02:00 +10°C° 0.1 mm 2 mps 721 mmHg 94%
    03:00 +10°C° 0.1 mm 2 mps 721 mmHg 95%
    04:00 +10°C° 0.1 mm 2 mps 721 mmHg 95%
    05:00 +10°C° 0 mm 2 mps 721 mmHg 95%
    06:00 +10°C° 0 mm 2 mps 721 mmHg 95%
    07:00 +10°C° 0 mm 2 mps 721 mmHg 94%
    08:00 +10°C° 0 mm 2 mps 721 mmHg 91%
    09:00 +11°C° 0 mm 3 mps 721 mmHg 88%
    10:00 +11°C° 0 mm 3 mps 721 mmHg 84%
    11:00 +12°C° 0.1 mm 3 mps 721 mmHg 83%
    12:00 +12°C° 0.1 mm 3 mps 720 mmHg 82%
    13:00 +12°C° 0.1 mm 3 mps 720 mmHg 80%
    14:00 +12°C° 0.7 mm 3 mps 719 mmHg 84%
    15:00 +11°C° 0.7 mm 3 mps 719 mmHg 88%
    16:00 +12°C° 0.7 mm 2 mps 719 mmHg 92%
    17:00 +10°C° 0.5 mm 2 mps 719 mmHg 94%
    18:00 +10°C° 0.5 mm 2 mps 719 mmHg 95%
    19:00 +10°C° 0.5 mm 2 mps 719 mmHg 96%
    20:00 +9°C° 0.1 mm 2 mps 719 mmHg 96%
    21:00 +9°C° 0.1 mm 2 mps 720 mmHg 96%
    22:00 +8°C° 0.1 mm 2 mps 720 mmHg 95%
    23:00 +7°C° 0 mm 2 mps 719 mmHg 96%

    26 May, Sunday

    Time Temperature Precipitation Wind Pressure Humidity
    00:00 +7°C° 0 mm 2 mps 719 mmHg 96%
    01:00 +6°C° 0 mm 2 mps 719 mmHg 96%
    02:00 +6°C° 0 mm 2 mps 719 mmHg 96%
    03:00 +6°C° 0 mm 2 mps 719 mmHg 96%
    04:00 +6°C° 0 mm 2 mps 719 mmHg 96%
    05:00 +5°C° 0 mm 2 mps 719 mmHg 96%
    06:00 +4°C° 0 mm 3 mps 719 mmHg 95%
    07:00 +4°C° 0 mm 3 mps 719 mmHg 95%
    08:00 +5°C° 0 mm 4 mps 719 mmHg 90%
    09:00 +6°C° 0 mm 5 mps 719 mmHg 85%
    10:00 +8°C° 0 mm 6 mps 719 mmHg 79%
    11:00 +8°C° 0.1 mm 6 mps 718 mmHg 79%
    12:00 +8°C° 0.1 mm 6 mps 718 mmHg 79%
    13:00 +8°C° 0.1 mm 6 mps 717 mmHg 79%
    14:00 +7°C° 0.4 mm 6 mps 717 mmHg 81%
    15:00 +7°C° 0.4 mm 6 mps 717 mmHg 83%
    16:00 +7°C° 0.4 mm 6 mps 717 mmHg 85%
    17:00 +6°C° 0.1 mm 5 mps 717 mmHg 85%
    18:00 +6°C° 0.1 mm 5 mps 718 mmHg 84%
    19:00 +5°C° 0.1 mm 4 mps 718 mmHg 84%
    20:00 +5°C° 0 mm 4 mps 718 mmHg 85%
    21:00 +4°C° 0 mm 4 mps 718 mmHg 85%
    22:00 +4°C° 0 mm 4 mps 719 mmHg 86%
    23:00 +4°C° 0 mm 4 mps 718 mmHg 86%
    Show more